Lapse_Rate
8.8 9.1 9.0 9.2 8.9 8.9 8.7 8.8 8.4 8.5 8.9 8.8 8.3 8.9 8.4 7.6 7.0 6.2 5.7 5.6 6.0 6.6 6.3 6.5 7.8 7.4 8.6 8.0 8.1 8.7 7.8 8.3 9.6 9.5 8.8 8.3 7.7 7.4 6.5 6.6 6.9 6.5 6.5 7.2 7.3 7.3 7.3
9.1 9.0 9.0 9.1 9.0 9.1 9.3 9.3 9.0 9.0 9.1 8.6 8.8 8.6 8.6 8.1 7.4 6.5 6.1 5.7 5.6 6.1 6.0 6.8 7.9 7.4 8.7 6.7 9.5 9.7 9.4 9.6 9.5 9.2 8.8 8.6 7.9 8.1 7.1 6.7 6.5 7.0 6.9 6.8 7.1 7.1 7.2
8.9 9.1 9.2 9.2 9.3 9.2 9.2 9.2 9.2 9.2 9.3 8.4 9.0 9.2 8.5 8.8 8.0 7.5 6.5 5.7 5.6 5.6 6.5 7.2 8.1 8.8 8.0 7.9 9.7 9.7 9.5 9.4 9.6 9.3 8.3 8.8 8.7 7.8 7.6 6.5 7.5 7.0 6.5 6.5 6.5 6.9 6.6
9.0 9.0 9.1 9.2 9.3 9.4 9.3 9.3 9.3 8.8 8.7 8.4 8.7 8.4 9.2 9.2 8.3 7.4 6.1 6.7 5.6 5.6 7.0 7.8 8.1 8.7 7.5 9.7 9.7 9.7 9.8 9.4 9.7 9.6 9.2 9.2 9.0 8.2 7.5 7.7 7.0 6.5 6.5 6.5 6.5 6.5 6.7
8.9 9.0 9.1 9.2 9.1 9.2 9.1 9.2 9.2 9.3 9.3 9.1 8.4 8.6 9.1 8.9 7.4 6.4 6.9 6.3 5.3 6.3 6.6 7.7 8.5 8.4 7.2 8.1 8.3 9.5 9.7 8.7 8.9 9.1 9.1 9.3 8.6 7.5 7.2 6.5 6.5 6.5 6.5 6.5 6.5 6.5 6.5
9.1 9.2 9.1 9.2 9.2 8.8 8.9 8.8 9.1 8.7 9.2 8.9 8.8 8.7 8.6 9.3 7.8 6.0 5.5 5.6 6.2 7.5 7.9 9.2 8.4 7.5 8.3 7.7 8.8 9.0 9.7 9.1 8.4 8.3 7.9 7.8 7.2 6.5 6.5 6.5 6.5 6.5 6.5 6.5 6.5 6.5 6.5
8.2 9.2 9.2 8.9 9.3 9.2 9.3 9.4 9.2 9.5 9.1 8.5 8.9 9.3 8.4 9.4 9.0 7.9 5.9 5.9 6.5 7.0 7.3 7.6 7.6 7.5 8.0 8.6 8.1 8.6 9.2 8.6 8.4 7.7 6.5 6.9 6.5 6.5 6.5 6.5 6.5 6.5 6.5 6.5 6.5 6.5 6.5
8.4 9.2 9.2 9.1 8.8 8.6 9.0 9.2 9.4 9.4 8.6 8.4 8.3 8.5 7.8 8.7 9.2 7.8 6.2 6.2 7.3 6.9 6.8 8.2 8.2 8.2 8.6 8.8 7.4 8.2 9.1 7.4 7.0 6.5 6.5 6.5 6.5 6.5 6.5 6.5 6.5 6.5 6.5 6.5 6.5 6.5 6.5
8.3 8.5 9.2 9.3 8.8 9.1 9.2 8.7 8.7 9.2 8.4 8.6 8.2 8.3 9.1 7.1 7.5 7.7 6.5 6.6 5.9 8.1 6.8 7.3 8.1 7.9 8.0 8.3 7.2 7.3 8.3 7.5 6.5 6.5 6.5 6.5 6.5 6.5 6.5 6.5 6.5 6.5 6.5 6.5 6.5 6.5 6.5
8.2 8.3 8.6 8.9 9.1 9.3 9.5 9.2 8.3 8.5 8.6 8.5 8.0 8.3 9.0 8.0 8.4 8.7 8.3 8.0 5.9 8.7 6.5 6.5 6.8 7.5 8.0 8.0 6.7 8.4 8.6 7.5 6.6 6.5 6.5 6.5 6.5 6.5 6.5 6.5 6.5 6.5 6.5 6.5 6.5 6.5 6.5
6.7 6.9 7.5 7.2 7.9 9.1 9.5 9.2 8.7 8.5 8.8 8.4 8.1 8.1 8.3 8.1 9.0 8.3 7.2 6.5 8.3 8.2 6.5 6.5 6.7 8.8 8.1 7.0 7.2 7.3 8.4 7.7 6.5 6.5 6.5 6.5 6.5 6.5 6.5 6.5 6.5 6.5 6.5 6.5 6.5 6.5 6.5
6.6 6.2 6.5 6.9 8.0 9.4 9.3 8.6 8.5 9.0 8.7 8.1 8.2 8.1 7.8 9.4 9.3 9.3 7.9 5.8 7.8 6.5 6.5 6.5 6.8 6.5 6.5 6.9 6.9 7.2 7.1 7.1 7.2 6.5 6.5 6.5 6.8 6.5 6.5 6.5 6.5 6.5 6.5 6.5 6.5 6.5 6.5
6.3 6.0 6.0 7.2 8.6 9.2 8.9 8.6 9.0 9.1 8.5 8.0 8.0 8.0 7.4 8.7 8.4 8.4 6.3 6.8 6.5 6.5 6.5 6.5 6.5 6.5 6.5 6.5 6.5 6.5 6.5 6.5 6.5 6.5 6.5 6.5 6.5 6.5 6.6 6.5 6.5 6.5 6.5 6.5 6.5 6.5 6.5
5.5 5.8 6.7 7.1 8.9 8.5 8.6 8.7 9.1 9.1 8.4 8.1 8.0 8.0 8.2 9.3 9.1 8.9 7.4 6.5 6.5 6.5 6.5 6.5 6.5 6.5 6.5 6.5 6.5 6.5 6.5 6.5 6.5 6.5 6.5 6.5 6.5 6.5 6.5 6.5 6.5 6.5 6.5 6.5 6.5 6.5 6.5
5.5 6.9 6.8 8.4 8.8 9.3 9.3 9.2 9.1 8.7 8.2 8.3 7.8 7.6 7.3 7.4 8.4 8.2 6.7 6.5 6.5 6.5 6.5 6.5 6.5 6.5 6.5 6.5 6.5 6.5 6.5 6.5 6.5 6.5 6.5 6.5 6.5 6.5 6.5 6.5 6.5 6.5 6.5 6.5 6.5 6.5 6.5
6.6 6.6 7.6 9.3 9.2 9.2 8.9 8.9 8.8 8.4 8.2 7.9 7.2 6.8 5.9 7.5 7.9 7.9 6.6 6.5 6.5 6.5 6.5 6.5 6.5 6.5 6.5 6.5 6.5 6.5 6.5 6.5 6.5 6.5 6.5 6.5 6.5 6.5 6.5 6.6 6.5 6.5 6.5 6.5 6.5 6.5 6.5
6.8 7.4 9.5 9.4 9.3 8.7 8.2 8.1 8.1 8.4 8.0 8.0 7.7 6.6 6.9 7.9 8.5 6.8 6.5 6.5 6.5 7.0 6.9 6.5 6.5 6.5 6.5 6.5 6.5 6.5 6.5 6.5 6.5 6.5 6.5 6.5 6.5 6.5 6.5 6.5 6.5 6.5 6.5 6.5 6.5 6.5 6.5
7.6 8.4 9.4 9.3 9.0 8.2 8.0 8.1 7.9 8.0 7.2 7.7 7.1 6.5 5.9 7.9 6.7 6.8 6.5 6.5 6.8 6.6 7.1 6.5 6.5 6.5 6.5 6.5 6.5 6.5 6.5 6.5 6.9 6.6 6.5 6.5 6.5 6.5 6.5 6.5 6.5 6.5 6.5 6.5 6.5 6.5 6.5
8.1 8.1 9.4 9.3 8.5 8.2 8.0 7.8 7.7 7.9 7.6 7.3 6.8 6.2 6.8 6.2 6.5 6.5 6.5 6.5 6.6 6.5 6.5 6.5 6.5 6.5 6.5 6.5 6.5 6.5 6.5 6.7 7.0 6.5 6.5 6.5 6.5 6.5 6.5 6.5 6.5 6.5 6.5 6.5 6.5 6.5 6.5
7.5 7.8 9.3 8.9 8.2 8.1 8.0 7.6 7.6 7.3 7.1 8.0 7.7 6.5 6.4 6.6 7.4 6.5 6.5 6.5 6.5 7.0 6.5 6.7 6.5 6.6 6.5 6.5 6.5 6.5 6.5 6.5 6.9 6.7 6.6 6.7 6.5 6.5 6.5 6.5 6.5 6.5 6.5 6.5 6.5 6.5 6.5
7.0 7.7 8.9 8.5 8.3 8.3 8.0 7.6 7.5 7.0 6.4 8.6 7.9 6.6 6.9 6.5 6.6 6.5 6.5 6.5 6.5 6.5 6.8 6.9 6.5 6.5 6.5 6.5 6.5 6.5 6.5 6.5 6.6 6.6 6.5 6.5 6.5 6.5 6.5 6.5 6.5 6.5 6.5 6.5 6.5 6.5 6.5
6.7 7.7 8.4 8.6 8.7 8.4 7.9 7.5 7.3 6.9 6.4 7.4 7.0 6.7 7.2 6.8 6.9 6.5 6.5 6.5 6.5 6.5 6.5 6.5 6.5 6.5 6.5 6.5 6.5 6.5 6.5 6.5 6.5 6.5 6.5 6.5 6.5 6.5 6.5 6.5 6.5 6.5 6.5 6.5 6.5 6.5 6.5
6.5 7.3 8.3 8.7 8.2 8.0 7.6 7.3 7.5 7.4 7.0 8.1 6.7 7.0 6.9 6.8 6.5 6.5 6.5 6.5 6.5 6.5 6.7 6.9 6.6 6.5 6.5 6.5 6.9 7.1 7.2 7.0 6.6 6.5 6.5 6.5 6.5 6.5 6.5 6.5 6.5 6.5 6.5 6.5 6.5 6.5 6.5
6.3 7.3 8.1 8.3 8.1 7.7 7.6 7.4 7.6 7.5 7.2 7.5 7.2 6.9 7.1 6.5 6.5 6.5 6.5 6.6 6.5 6.5 6.5 6.9 7.1 6.5 7.1 8.0 7.8 7.6 7.2 6.9 6.8 6.6 6.7 6.5 6.5 6.5 6.5 6.5 6.5 6.5 6.5 6.5 6.5 6.5 6.5
5.8 7.5 8.1 8.3 8.3 7.9 7.3 7.0 7.2 7.2 6.9 6.9 6.1 7.1 6.9 6.5 6.7 6.6 6.6 6.5 6.9 7.0 6.6 6.8 7.2 7.7 8.2 7.4 6.5 6.5 6.5 6.5 6.5 6.5 6.5 6.5 6.5 6.5 6.5 6.5 6.5 6.5 6.5 6.5 6.5 6.5 6.5
5.6 6.8 7.5 7.4 7.2 7.4 6.9 6.9 6.7 6.4 6.2 7.7 7.5 6.3 8.0 6.8 6.6 7.3 6.7 6.9 6.5 6.5 6.5 6.9 7.9 8.2 7.8 6.5 6.5 6.5 6.5 6.5 6.5 6.5 6.5 6.5 6.5 6.5 6.5 6.5 6.5 6.5 6.5 6.9 6.5 6.5 6.5
5.5 5.6 7.1 7.1 6.5 6.4 6.2 6.1 5.9 6.0 5.2 7.0 5.5 5.3 7.0 7.1 7.5 7.3 6.7 6.7 7.3 6.8 6.5 6.8 7.0 7.0 7.7 6.5 6.5 6.5 6.5 6.5 6.5 6.5 6.5 6.5 6.5 6.5 6.5 6.5 6.5 6.5 6.6 7.0 6.5 6.5 6.8
5.5 5.1 5.9 6.8 6.3 6.0 6.3 6.1 5.6 5.6 5.1 6.3 5.4 5.8 7.6 7.7 7.6 6.4 6.8 7.4 7.4 7.2 6.5 7.0 6.8 7.0 6.6 6.5 6.5 6.5 6.5 6.5 6.5 6.5 6.5 6.5 6.5 6.5 6.5 6.5 6.5 6.8 6.7 6.5 6.6 7.1 7.2
5.6 5.8 5.6 6.3 6.0 5.6 6.5 5.6 5.3 5.7 6.0 6.7 7.1 6.0 6.8 7.8 7.6 6.4 6.3 5.7 4.9 5.4 7.3 7.4 7.0 6.8 6.9 6.5 6.5 6.5 6.5 6.5 6.5 6.5 6.5 6.5 6.5 6.5 6.5 6.5 6.7 7.2 6.9 7.4 7.5 7.2 7.3
Wind_Speed
19 21 19 20 22 21 22 22 22 24 25 26 26 24 27 29 26 26 27 16 13 11 8 5 4 9 7 7 11 13 5 4 7 7 7 7 8 10 14 11 14 16 21 24 23 21 22
18 19 20 21 22 22 23 25 25 25 26 28 25 26 28 29 28 30 30 20 13 10 7 5 6 10 8 9 5 6 7 6 7 7 8 7 6 8 10 11 17 14 17 20 22 24 21
18 19 20 21 23 22 22 22 24 25 27 25 28 28 27 29 31 28 33 32 13 7 4 6 7 8 8 13 2 6 6 6 5 8 9 8 8 8 6 13 13 13 17 17 22 21 22
22 20 21 21 21 22 22 23 23 23 26 26 27 29 30 31 34 33 35 19 12 8 6 6 7 8 7 2 7 8 9 9 7 7 9 7 6 12 16 12 14 16 15 12 12 17 18
22 23 23 24 22 23 23 24 23 24 24 25 27 27 29 32 36 44 19 15 9 7 4 7 6 10 7 6 7 7 7 8 5 8 9 7 4 9 9 11 7 9 9 14 12 15 10
23 23 24 22 24 24 21 22 21 22 22 24 24 27 28 30 34 26 13 14 8 5 7 5 3 5 7 6 7 4 3 3 4 5 6 11 6 9 5 5 8 6 14 12 13 6 18
22 24 25 23 24 23 24 23 23 25 27 27 28 25 29 28 28 24 6 4 6 3 7 8 9 4 8 7 4 5 5 7 5 5 8 13 8 10 15 15 18 18 16 16 15 9 16
23 23 25 25 24 23 23 24 24 24 23 26 24 25 28 28 25 26 4 3 6 3 6 20 12 14 2 4 4 8 8 7 5 8 12 6 12 14 6 8 12 17 18 18 5 8 11
25 25 24 23 22 24 25 24 25 23 23 25 24 22 22 30 30 8 4 4 2 6 4 6 16 13 7 8 5 10 12 4 7 8 11 13 9 5 5 8 10 13 15 11 5 10 7
30 27 24 23 22 24 25 24 24 24 23 23 22 21 20 23 15 10 7 5 8 8 3 8 8 6 8 6 5 7 10 4 5 8 12 9 12 6 7 10 8 10 11 6 6 8 2
33 27 24 21 27 26 25 26 23 24 25 25 19 19 18 13 12 7 6 12 5 2 4 9 7 7 9 7 8 8 4 5 9 7 4 2 5 7 11 6 7 5 4 5 10 10 4
44 31 10 19 27 26 25 25 25 25 26 23 20 16 14 10 6 11 6 5 1 3 5 5 6 8 9 9 6 5 4 1 5 3 6 12 4 5 5 10 10 11 7 10 13 9 1
48 30 18 22 26 26 24 24 26 27 26 23 21 19 7 13 7 6 2 2 3 5 6 5 7 9 12 8 8 8 7 5 3 2 3 1 3 4 7 6 7 8 8 3 5 1 3
23 24 24 22 22 25 23 26 28 28 27 25 23 22 17 13 11 12 1 0 6 5 5 3 9 12 6 10 5 7 2 1 3 1 2 3 2 5 6 2 1 3 4 4 4 2 4
23 20 18 20 23 24 26 28 29 29 28 28 28 7 5 8 13 4 2 3 6 5 4 6 10 9 5 5 3 4 6 3 5 9 3 0 3 5 3 4 5 3 2 5 5 5 5
15 12 16 21 24 23 27 29 29 28 29 29 6 4 2 4 13 6 1 4 4 6 3 8 2 4 5 7 5 4 3 3 2 1 3 1 3 3 5 5 5 3 6 2 1 2 5
17 15 21 23 24 26 28 29 29 29 28 24 4 3 9 18 8 1 2 3 5 7 6 4 3 4 2 5 1 2 3 3 5 3 2 4 2 1 4 5 7 3 6 3 3 3 2
17 22 22 23 24 26 28 28 28 28 26 12 4 4 6 3 3 1 1 4 4 6 5 3 3 5 2 2 3 2 6 6 8 6 3 4 4 2 2 1 2 2 9 9 4 4 4
17 23 21 22 25 26 26 26 27 26 22 5 3 3 2 3 2 2 4 4 5 4 5 6 3 5 1 2 1 4 4 4 7 6 7 5 3 1 2 2 0 6 11 10 2 3 4
19 20 21 23 25 24 25 25 25 24 21 4 2 2 3 2 2 6 3 4 3 4 5 6 3 3 3 4 3 5 5 4 5 6 5 6 5 6 6 5 4 5 11 13 6 6 12
18 19 21 22 23 24 25 24 23 21 20 3 3 2 2 2 4 2 4 3 2 4 5 4 2 2 2 2 4 4 3 5 4 4 4 6 4 4 8 6 5 4 7 11 12 11 10
17 19 22 22 22 23 24 23 19 16 16 4 2 2 2 3 2 3 3 2 2 3 4 2 2 5 2 4 5 4 2 3 4 3 4 3 2 3 3 5 5 5 7 6 8 8 10
17 18 21 21 22 23 23 20 14 12 9 3 0 2 3 4 2 3 2 3 0 3 3 5 7 3 8 7 9 7 7 8 6 4 3 3 2 3 3 6 4 3 7 5 4 4 3
14 18 20 21 23 23 22 17 16 10 4 1 0 1 2 3 1 3 4 4 4 7 4 6 8 2 2 3 7 8 9 9 9 7 5 2 3 1 1 3 2 3 4 5 4 2 4
14 18 20 21 23 24 24 17 14 11 5 3 1 1 1 2 2 3 1 3 2 3 5 5 6 4 5 5 3 2 2 2 5 6 7 5 0 1 2 1 3 1 1 2 4 5 3
12 18 20 22 24 25 24 21 16 8 2 5 2 0 2 3 3 2 3 1 2 1 4 3 3 4 4 2 1 1 3 4 2 2 4 4 3 2 1 0 0 4 3 1 3 3 3
12 14 22 24 27 28 29 22 13 6 10 3 2 1 2 1 2 2 1 3 2 0 3 3 2 4 6 2 1 1 2 3 1 2 1 1 2 3 1 2 2 5 3 1 2 4 4
12 14 19 25 27 31 22 5 15 13 7 1 3 2 3 2 3 2 3 2 3 2 0 4 4 3 0 2 2 1 2 1 2 2 1 3 2 2 1 2 2 4 2 2 3 2 3
10 13 15 20 23 25 10 14 18 11 2 2 2 2 2 2 3 1 2 3 3 5 3 2 3 2 2 1 1 1 2 2 3 2 2 3 2 3 3 2 2 4 4 3 2 2 1
Wind_Direction
355 351 350 351 348 350 350 350 348 345 341 341 336 341 339 335 332 331 329 220 212 221 207 222 231 167 206 229 249 141 163 158 180 195 229 242 264 266 258 273 288 265 260 269 272 269 259
351 349 349 348 345 345 346 340 344 342 341 337 342 344 342 336 328 327 324 291 210 223 198 194 208 181 234 242 71 150 173 188 218 206 220 229 254 289 302 277 269 272 278 274 265 261 258
343 344 346 344 343 342 340 341 339 340 335 341 337 338 340 332 328 317 322 308 190 194 199 199 190 203 227 241 153 169 189 220 235 231 241 244 267 254 273 277 274 286 278 277 266 257 251
338 337 340 336 337 335 336 334 335 341 332 338 336 337 334 333 327 322 308 274 183 165 181 196 191 223 248 171 238 210 222 233 226 251 244 260 261 261 263 263 275 278 275 267 251 238 233
334 335 335 334 331 329 328 330 330 327 329 333 329 330 334 333 330 322 290 160 138 132 173 187 193 222 253 116 210 221 229 237 225 214 232 233 224 243 247 243 261 224 263 243 256 203 216
330 329 328 333 328 325 330 321 324 323 322 319 325 325 330 333 336 343 88 121 125 146 187 186 316 214 221 209 151 164 169 192 193 190 224 226 225 238 213 201 251 261 227 254 255 223 198
323 323 324 322 319 323 323 328 326 325 328 326 318 321 323 329 336 338 350 137 107 178 221 201 182 241 141 110 152 190 147 160 179 201 216 197 216 229 234 236 249 278 294 267 271 263 188
312 317 320 319 326 322 322 325 320 321 326 321 321 318 320 324 330 323 299 312 335 16 264 224 239 217 137 184 190 180 173 212 199 221 221 229 245 255 331 287 265 256 262 270 284 228 189
302 306 317 315 324 327 325 321 315 325 322 322 320 315 320 319 322 297 214 231 318 301 258 174 211 216 211 201 225 165 192 198 239 250 234 241 256 215 268 267 247 249 240 266 196 196 232
298 299 303 316 323 328 327 324 318 319 318 323 322 322 318 323 307 349 286 331 217 258 272 166 184 198 175 217 214 148 199 223 208 240 240 259 262 247 240 250 269 261 232 262 143 201 141
293 292 304 334 332 324 326 327 326 319 321 317 319 316 320 316 300 303 354 330 160 234 244 129 138 133 152 193 132 180 186 211 260 266 249 283 324 275 267 269 218 270 223 179 286 277 318
298 281 308 4 321 327 328 331 326 323 323 322 318 310 321 299 300 276 313 327 140 194 230 138 129 163 158 200 187 128 178 255 290 283 244 270 356 323 278 310 274 294 174 215 260 256 115
307 306 31 356 328 327 333 331 329 327 325 322 314 302 252 270 267 15 50 131 174 252 159 146 164 171 191 163 184 183 181 187 274 257 230 193 218 235 227 249 226 249 240 189 227 89 48
11 42 17 332 328 323 339 335 333 332 329 323 315 302 272 264 250 254 221 200 247 76 94 143 148 163 172 157 185 191 215 233 217 158 295 297 124 358 325 323 263 209 309 321 352 106 89
31 18 348 324 323 347 340 337 337 335 331 327 321 287 264 234 214 194 126 224 17 40 107 139 139 161 154 172 269 152 204 190 166 201 284 320 37 330 305 341 337 344 309 337 314 51 71
7 360 324 338 349 347 339 337 339 338 337 329 305 343 253 168 168 163 145 329 34 32 116 140 118 261 160 165 198 187 158 20 59 17 258 52 103 333 325 323 215 298 327 264 263 323 77
357 346 351 352 351 347 340 342 343 345 342 333 343 13 50 122 129 100 249 30 44 29 22 10 13 122 78 134 248 91 53 67 14 353 286 303 296 120 263 23 5 2 19 303 275 332 344
358 357 355 353 351 347 346 350 347 349 349 345 9 61 2 150 77 254 342 31 20 351 354 354 307 45 101 105 83 79 84 39 350 326 28 16 57 67 77 239 328 331 6 10 340 44 15
359 355 353 349 350 349 352 349 349 350 2 339 49 31 351 288 94 51 39 61 46 357 345 335 51 29 12 71 69 67 71 9 7 18 2 359 27 163 145 152 317 20 10 355 10 18 18
354 354 351 351 347 349 353 349 350 349 353 359 49 71 342 344 310 99 81 15 34 301 295 298 41 88 122 47 33 122 109 42 9 12 331 286 52 40 63 54 332 14 16 22 41 47 73
352 350 348 348 349 352 352 351 350 350 349 306 41 49 336 19 27 44 41 358 45 352 237 329 101 70 99 91 95 93 95 139 71 5 18 2 66 64 71 49 67 30 36 41 45 37 67
350 346 343 346 349 348 350 347 349 352 336 51 50 12 31 13 2 79 337 31 35 321 333 45 73 74 353 61 1 132 115 31 36 50 22 9 88 13 54 37 51 63 50 57 64 65 77
345 343 342 345 343 344 345 347 7 358 335 59 359 258 281 12 11 308 41 89 263 304 77 42 337 86 63 37 55 67 67 63 62 9 42 20 116 345 6 356 332 140 24 39 73 46 20
344 337 339 339 337 337 338 346 344 344 316 321 359 280 314 87 334 340 331 273 23 17 48 54 18 1 41 166 107 92 84 76 66 46 4 105 103 42 323 300 12 58 43 359 349 44 82
342 335 337 336 334 331 330 330 325 325 314 222 189 227 306 105 268 121 136 186 236 71 54 43 20 35 355 287 145 141 110 147 56 41 23 8 207 72 292 250 115 223 307 352 4 92 69
343 335 335 334 332 327 325 318 305 295 265 174 193 34 302 311 59 64 124 96 139 53 116 47 94 344 314 301 301 350 28 15 25 40 13 7 6 345 3 57 181 68 121 207 267 154 79
335 342 336 336 334 329 321 306 284 169 171 159 93 27 268 325 62 314 61 55 66 103 56 107 7 337 339 323 52 355 71 346 303 314 333 356 339 322 316 337 324 100 102 261 254 58 74
329 341 345 340 338 336 340 69 123 138 152 46 88 337 301 6 91 339 336 305 178 222 201 143 196 199 113 303 296 54 296 82 274 6 270 253 244 239 240 273 270 140 107 303 53 103 119
327 336 351 344 343 350 49 106 111 113 108 346 93 58 10 6 67 56 27 21 6 337 313 163 350 345 40 259 258 283 208 206 322 248 216 258 308 344 282 27 27 195 26 74 23 14 299